Regional Weather Roundup
Issued by NWS

Home | Current Version | Previous Version | Graphics & Text | Print | Product List | Glossary On
Versions: 1 2 3 4 5 6 7 8 9 10 11 12 13 14 15 16 17 18 19 20 21 22 23 24 25 26 27 28 29 30 31 32 33 34 35 36 37 38 39 40 41 42 43 44 45 46 47 48 49 50
000
ASUS45 KBOI 251410
RWRID

IDAHO REGIONAL WEATHER ROUNDUP
NATIONAL WEATHER SERVICE BOISE ID
800 AM MDT SUN SEP 25 2016

NOTE: "FAIR" INDICATES FEW OR NO CLOUDS BELOW 12000 FEET
WITH NO SIGNIFICANT WEATHER AND/OR OBSTRUCTIONS TO VISIBILITY

IDZ012-014-251500-
SOUTHWEST IDAHO


CITY           SKY/WX    TMP DP  RH WIND       PRES   REMARKS
BOISE          CLEAR     45  35  68 S3        30.43R
CALDWELL       CLEAR     42  37  82 S3        30.44S
MOUNTAIN HOME  CLEAR     42  36  80 NE3       30.45R
$$

IDZ016-017-251500-
SOUTHCENTRAL IDAHO


CITY           SKY/WX    TMP DP  RH WIND       PRES   REMARKS
BURLEY         CLEAR     36  33  89 SW6       30.47R WCI  31
JEROME         CLEAR     39  35  86 E3        30.47R
TWIN FALLS     CLEAR     47  30  51 S8        30.47R
$$

IDZ019>023-251500-
SOUTHEAST IDAHO


CITY           SKY/WX    TMP DP  RH WIND       PRES   REMARKS
IDAHO FALLS    CLOUDY    38  35  89 CALM      30.50R
POCATELLO      CLOUDY    36  34  92 N5        30.49R WCI  32
REXBURG        CLEAR     34  33  96 NE5       30.50R WCI  30
$$

IDZ006-010-011-018-031-032-251500-
CENTRAL IDAHO MOUNTAINS


CITY           SKY/WX    TMP DP  RH WIND       PRES   REMARKS
MCCALL         CLEAR     33  29  85 NE5       30.48R WCI  29
HAILEY         CLEAR     39  30  70 NW6       30.50R WCI  35
STANLEY          N/A     27  24  89 CALM      30.57R
SALMON         CLOUDY    36  34  93 S3        30.53R
CHALLIS        CLOUDY    36  31  82 CALM      30.52R
$$

IDZ002-004-006-007-026-251500-
NORTHERN IDAHO


CITY           SKY/WX    TMP DP  RH WIND       PRES   REMARKS
LEWISTON       PTCLDY    50  39  66 E3        30.43R
LOWELL           N/A     46  42  86 CALM      30.52R
COEUR D`ALENE  NOT AVBL
MULLAN PASS    CLOUDY    41  32  70 SW7       30.45S
$$



USA.gov is the U.S. government's official web portal to all federal, state and local government web resources and services.